[[{"header":{"parameterUnit":"m.s-1","parameterCategory":1,"la1":30.2992,"la2":30.254,"lo1":-89.0895,"lo2":-89.0443,"dy":0.0025,"dx":0.0025,"nx":19,"ny":19,"refTime":"2026-04-05T09:00:00:Z","depth":0,"parameterNumber":2,"parameterNumberName":"U-component_of_WINDS"},"data":[0,0,0,-3.8918,-3.8919,-3.8987,-3.8987,-3.9098,-3.9099,0,0,0,0,0,0,0,0,0,0,0,-3.8912,-3.8914,-3.8917,-3.892,-3.8987,-3.8987,-3.9098,-3.9099,0,0,0,0,0,0,0,0,0,0,0,-3.8912,-3.8913,-3.8915,-3.892,-3.8987,-3.8988,-3.9097,-3.9038,0,0,0,0,0,0,0,0,0,0,-3.8968,-3.8977,-3.8913,-3.8915,-3.892,-3.8987,-3.8988,-3.9034,-3.9041,-3.9077,0,-3.9114,0,-3.9108,-3.9108,-3.9108,0,0,0,-3.8908,-3.8972,-3.8977,-3.8915,-3.8921,-3.8987,-3.8954,-3.9038,-3.9046,-3.9087,-3.9115,-3.9119,-3.911,-3.9109,-3.9109,-3.9357,-3.9359,0,0,-3.8905,-3.8933,-3.8971,-3.8983,-3.8974,-3.8952,-3.8956,-3.9042,-3.9075,-3.9116,-3.9121,-3.9112,-3.911,-3.9111,-3.9355,-3.9357,0,0,0,-3.8901,-3.8931,-3.8933,-3.8979,-3.8989,-3.8954,-3.8959,-3.9071,-3.9069,-3.9122,-3.9113,-3.911,-3.9112,-3.9353,-3.9356,-3.9469,0,0,0,-3.8899,-3.8928,-3.8932,-3.8949,-3.8988,-3.9031,-3.8986,-3.9064,-3.9072,-3.9113,-3.9111,-3.9113,-3.9351,-3.9355,-3.9461,-3.9518,0,0,0,-3.8903,-3.8929,-3.8944,-3.8951,-3.8981,-3.9029,-3.9032,-3.9065,-3.9068,-3.9109,-3.9114,-3.935,-3.9354,-3.9455,-3.9507,-3.9593,0,0,0,-3.8915,-3.9042,-3.8946,-3.9083,-3.8981,-3.9098,-3.9031,-3.9117,-3.9165,-3.9111,-3.9352,-3.9356,-3.9453,-3.9501,-3.9587,-3.9673,-3.9711,0,0,-3.909,-3.9064,-3.9142,-3.9059,-3.92,-3.9085,-3.9243,-3.9259,-3.9237,-3.9318,-3.9324,-3.9464,-3.9507,-3.9592,-3.9907,-3.9938,0,0,0,-3.9207,-3.9265,-3.9296,-3.9343,-3.9359,-3.9378,-3.9368,-3.9374,-3.9442,-3.9284,-3.9515,-3.954,-3.9589,-3.9629,-3.9655,-3.9696,-3.9375,-3.9374,-3.9374,-3.9497,-3.9461,-3.959,-3.9563,-3.961,-3.9598,-3.9633,-3.9639,-3.9589,-3.9644,-3.9669,-3.9865,-3.9913,-3.9932,-3.9976,-3.9709,-3.971,-3.971,-3.971,-3.9752,-3.9829,-3.9759,-3.9859,-3.9821,-3.9904,-3.9897,-3.9859,-3.9931,-3.9843,-3.9884,-3.9794,-3.9967,-4.0003,-3.9718,-3.9717,-3.9716,-3.9715,-3.9715,-3.9941,-3.9972,-3.9977,-4.0042,-4.0097,-4.0063,-4.0137,-4.0098,-4.0062,-4.0103,-4.0126,-4.0125,-4.012,-4.0116,-4.0117,-4.0117,-4.0118,-4.0118,-4.0119,-4.0136,-4.0138,-4.0205,-4.0233,-4.0258,-4.0287,-4.0276,-4.03,-4.0317,-4.0283,-4.0283,-4.023,-3.9989,-3.9931,-4.0129,-4.0128,-4.0126,-4.0125,-4.0124,-4.0414,-4.0345,-4.0449,-4.0475,-4.0504,-4.0561,-4.051,-4.0563,-4.0576,-4.0614,-4.055,-4.0378,-4.0348,-4.0327,-4.0279,-4.0556,-4.0556,-4.0556,-4.0556,-4.0576,-4.0556,-4.0654,-4.0698,-4.0737,-4.0701,-4.082,-4.0812,-4.0792,-4.0799,-4.0752,-4.0684,-4.0664,-4.0646,-4.0619,-4.0574,-4.0919,-4.0919,-4.0919,-4.0746,-4.0729,-4.0838,-4.0818,-4.0838,-4.0856,-4.0967,-4.1021,-4.0983,-4.0933,-4.0804,-4.0788,-4.0678,-4.0643,-4.0594,-4.0552,-4.0469,0,0]},{"header":{"parameterUnit":"m.s-1","parameterCategory":1,"la1":30.2992,"la2":30.254,"lo1":-89.0895,"lo2":-89.0443,"dy":0.0025,"dx":0.0025,"nx":19,"ny":19,"refTime":"2026-04-05T09:00:00:Z","depth":0,"parameterNumber":3,"parameterNumberName":"V-component_of_WINDS"},"data":[0,0,0,-6.2792,-6.2794,-6.2869,-6.2869,-6.2978,-6.2979,0,0,0,0,0,0,0,0,0,0,0,-6.2781,-6.2782,-6.2792,-6.2794,-6.2869,-6.2869,-6.2978,-6.2979,0,0,0,0,0,0,0,0,0,0,0,-6.278,-6.2782,-6.2783,-6.2795,-6.2869,-6.2869,-6.2978,-6.2916,0,0,0,0,0,0,0,0,0,0,-6.2841,-6.2841,-6.2781,-6.2783,-6.2795,-6.2869,-6.2869,-6.2913,-6.292,-6.2951,0,-6.2983,0,-6.2983,-6.2988,-6.2988,0,0,0,-6.2786,-6.2836,-6.2846,-6.2783,-6.2796,-6.2869,-6.2833,-6.2916,-6.2924,-6.296,-6.2985,-6.2988,-6.2985,-6.2988,-6.2989,-6.3202,-6.3204,0,0,-6.2782,-6.2799,-6.2841,-6.2852,-6.2844,-6.283,-6.2835,-6.2921,-6.2948,-6.2985,-6.2991,-6.2987,-6.2989,-6.299,-6.3201,-6.3203,0,0,0,-6.2776,-6.2797,-6.2805,-6.2848,-6.2861,-6.2833,-6.2838,-6.2944,-6.2945,-6.2992,-6.2988,-6.299,-6.2991,-6.32,-6.3202,-6.3289,0,0,0,-6.2773,-6.2793,-6.2804,-6.2815,-6.2859,-6.2904,-6.286,-6.2939,-6.2949,-6.2988,-6.299,-6.2993,-6.3198,-6.3201,-6.3284,-6.3327,0,0,0,-6.2772,-6.2793,-6.2808,-6.2816,-6.2849,-6.2902,-6.2908,-6.2941,-6.2947,-6.2988,-6.2993,-6.3197,-6.32,-6.3278,-6.3319,-6.3389,0,0,0,-6.2776,-6.2884,-6.281,-6.2927,-6.2849,-6.2956,-6.2907,-6.2986,-6.3031,-6.2991,-6.3198,-6.3202,-6.3277,-6.3314,-6.3384,-6.3452,-6.3482,0,0,-6.2921,-6.2902,-6.297,-6.2906,-6.3031,-6.2943,-6.3081,-6.3104,-6.3091,-6.3165,-6.317,-6.3285,-6.3318,-6.3388,-6.3644,-6.3668,0,0,0,-6.3021,-6.3071,-6.31,-6.3146,-6.3168,-6.3189,-6.3191,-6.3199,-6.3262,-6.3134,-6.3329,-6.3348,-6.3388,-6.342,-6.344,-6.3474,-6.3217,-6.3217,-6.3216,-6.3252,-6.3231,-6.3341,-6.3329,-6.3373,-6.3374,-6.3407,-6.3418,-6.3382,-6.3429,-6.3451,-6.3609,-6.3647,-6.3662,-6.3697,-6.3485,-6.3485,-6.3485,-6.3486,-6.3463,-6.3529,-6.348,-6.357,-6.3545,-6.362,-6.3624,-6.3596,-6.366,-6.3591,-6.3625,-6.3551,-6.369,-6.3719,-6.3492,-6.3491,-6.349,-6.3489,-6.3489,-6.3612,-6.364,-6.365,-6.3713,-6.3764,-6.3746,-6.3811,-6.3786,-6.3762,-6.3796,-6.3817,-6.3815,-6.3811,-6.3808,-6.3809,-6.3809,-6.381,-6.381,-6.381,-6.3763,-6.3772,-6.3831,-6.3863,-6.3889,-6.3919,-6.392,-6.3944,-6.3964,-6.394,-6.394,-6.39,-6.3707,-6.366,-6.3819,-6.3817,-6.3816,-6.3815,-6.3815,-6.3986,-6.3932,-6.4023,-6.4049,-6.4084,-6.4136,-6.4103,-6.4154,-6.417,-6.4203,-6.4154,-6.4017,-6.3994,-6.3977,-6.3938,-6.4159,-6.4159,-6.4159,-6.4159,-6.4112,-6.4098,-6.4186,-6.4229,-6.4268,-6.4248,-6.435,-6.4351,-6.4343,-6.4352,-6.4316,-6.4261,-6.4245,-6.4232,-6.421,-6.4172,-6.4448,-6.4449,-6.4449,-6.4248,-6.4237,-6.433,-6.4323,-6.4349,-6.4371,-6.4466,-6.4516,-6.4496,-6.446,-6.4357,-6.4345,-6.4256,-6.4229,-6.4191,-6.4158,-6.4089,0,0]}]]